Location: Flynn Junction
(40.1314°N, 99.5162°W)
Time: 21:55:02
(UTC+00:00)

Cosmos 1190 Rocket - Pass Details

Date: 29 October 2020
Orbit: 757 x 779 km, 74.1° (Epoch: 01 December)

Event Time Altitude Azimuth Distance (km) Brightness Sun altitude
Rises 12:06:39 0° 198° (SSW) 3,225 7.1 -11.6°
Reaches altitude 10° 12:09:02 10° 199° (SSW) 2,300 6.4 -11.2°
Maximum altitude 12:14:15 87° 287° (WNW) 771 4.0 -10.2°
Drops below altitude 10° 12:19:29 10° 18° (NNE) 2,301 6.6 -9.2°
Sets 12:21:52 0° 19° (NNE) 3,228 7.4 -8.8°
